| time (UTC) | temp F | wind direction | speed MPH | gust MPH | rain 1hr in | rain 24hr in | rain mn in | humidity % | barometer mb |
| 20260905071558 | 64 | 40 | 2.0 | 9.0 | 0.00 | 0.03 | 0.03 | 71 | 1014.4 |
| 20260905070106 | 64 | 355 | 2.0 | 8.0 | 0.00 | 0.03 | 0.03 | 71 | 1014.4 |
| 20260905064631 | 65 | 0 | 2.0 | 14.0 | 0.00 | 0.03 | 0.03 | 74 | 1014.3 |
| 20260905063103 | 65 | 355 | 2.0 | 8.0 | 0.01 | 0.03 | 0.03 | 75 | 1014.6 |
| 20260905061604 | 63 | 45 | 1.0 | 4.0 | 0.03 | 0.03 | 0.03 | 82 | 1014.6 |
| 20260905060111 | 60 | 48 | 1.0 | 14.0 | 0.03 | 0.03 | 0.03 | 88 | 1015.0 |
| 20260905054607 | 59 | 310 | 1.0 | 6.0 | 0.03 | 0.03 | 0.03 | 87 | 1015.4 |
| 20260905053104 | 59 | 36 | 1.0 | 9.0 | 0.01 | 0.01 | 0.01 | 84 | 1015.4 |
| 20260905051558 | 62 | 355 | 3.0 | 10.0 | 0.00 | 0.00 | 0.00 | 73 | 1015.6 |
| 20260905050108 | 65 | 304 | 2.0 | 11.0 | 0.00 | 0.00 | 0.00 | 63 | 1015.6 |
| 20260905044606 | 65 | 310 | 3.0 | 10.0 | 0.00 | 0.00 | 0.00 | 64 | 1016.0 |
| 20260905043108 | 66 | 323 | 2.0 | 6.0 | 0.00 | 0.00 | 0.00 | 62 | 1016.1 |
| 20260905041603 | 67 | 360 | 2.0 | 9.0 | 0.00 | 0.00 | 0.00 | 61 | 1016.1 |
| 20260905034609 | 65 | 360 | 1.0 | 5.0 | 0.00 | 0.00 | 0.00 | 65 | 1016.7 |
| 20260905033101 | 65 | 360 | 1.0 | 7.0 | 0.00 | 0.00 | 0.00 | 65 | 1016.8 |
| 20260905031605 | 65 | 355 | 1.0 | 7.0 | 0.00 | 0.00 | 0.00 | 65 | 1017.1 |
| 20260905030119 | 64 | 24 | 0.0 | 4.0 | 0.00 | 0.00 | 0.00 | 68 | 1017.2 |
| 20260905024605 | 62 | 28 | 0.0 | 3.0 | 0.00 | 0.00 | 0.00 | 71 | 1017.7 |
| 20260905023101 | 62 | 24 | 1.0 | 6.0 | 0.00 | 0.00 | 0.00 | 72 | 1017.8 |
| 20260905021604 | 61 | 0 | 0.0 | 4.0 | 0.00 | 0.00 | 0.00 | 74 | 1018.0 |
| 20260905020107 | 62 | 13 | 0.0 | 2.0 | 0.00 | 0.00 | 0.00 | 76 | 1018.0 |
| 20260905014603 | 61 | 75 | 1.0 | 5.0 | 0.00 | 0.00 | 0.00 | 77 | 1018.4 |
| 20260905013101 | 62 | 0 | 0.0 | 3.0 | 0.00 | 0.00 | 0.00 | 80 | 1018.4 |
| 20260905011608 | 61 | 81 | 0.0 | 2.0 | 0.00 | 0.00 | 0.00 | 81 | 1018.6 |
| 20260905010103 | 59 | 5 | 1.0 | 4.0 | 0.00 | 0.00 | 0.00 | 83 | 1018.8 |
| 20260905004608 | 58 | 0 | 0.0 | 5.0 | 0.00 | 0.00 | 0.00 | 85 | 1018.9 |
| 20260905003101 | 58 | 27 | 1.0 | 6.0 | 0.00 | 0.00 | 0.00 | 82 | 1019.1 |
| 20260905001609 | 58 | 0 | 0.0 | 2.0 | 0.00 | 0.00 | 0.00 | 80 | 1018.9 |
| 20260905000105 | 58 | 5 | 0.0 | 2.0 | 0.00 | 0.00 | 0.00 | 80 | 1018.6 |
| 20260904234608 | 57 | 0 | 0.0 | 1.0 | 0.00 | 0.00 | 0.00 | 80 | 1018.5 |
| 20260904233103 | 57 | 29 | 0.0 | 4.0 | 0.00 | 0.00 | 0.00 | 78 | 1018.4 |
| 20260904231604 | 57 | 0 | 0.0 | 1.0 | 0.00 | 0.00 | 0.00 | 78 | 1018.4 |
| 20260904230106 | 57 | 0 | 0.0 | 1.0 | 0.00 | 0.00 | 0.00 | 75 | 1018.2 |
| 20260904224602 | 56 | 0 | 0.0 | 1.0 | 0.00 | 0.00 | 0.00 | 75 | 1018.2 |
| 20260904223101 | 56 | 0 | 0.0 | 1.0 | 0.00 | 0.00 | 0.00 | 75 | 1018.2 |
| 20260904221608 | 56 | 0 | 0.0 | 1.0 | 0.00 | 0.00 | 0.00 | 75 | 1018.4 |
| 20260904220111 | 56 | 0 | 0.0 | 1.0 | 0.00 | 0.00 | 0.00 | 76 | 1018.3 |
| 20260904214605 | 56 | 0 | 0.0 | 2.0 | 0.00 | 0.00 | 0.00 | 76 | 1018.2 |
| 20260904213104 | 56 | 0 | 0.0 | 2.0 | 0.00 | 0.00 | 0.00 | 75 | 1018.1 |
| 20260904211608 | 56 | 0 | 0.0 | 1.0 | 0.00 | 0.00 | 0.00 | 77 | 1017.9 |
| 20260904210111 | 56 | 0 | 0.0 | 0.0 | 0.00 | 0.00 | 0.00 | 78 | 1018.1 |
| 20260904204606 | 56 | 0 | 0.0 | 0.0 | 0.00 | 0.00 | 0.00 | 78 | 1018.2 |
| 20260904203109 | 56 | 0 | 0.0 | 0.0 | 0.00 | 0.00 | 0.00 | 77 | 1018.0 |
| 20260904201606 | 56 | 0 | 0.0 | 0.0 | 0.00 | 0.00 | 0.00 | 75 | 1018.1 |
| 20260904200134 | 56 | 0 | 0.0 | 0.0 | 0.00 | 0.00 | 0.00 | 73 | 1018.1 |
| 20260904194635 | 56 | 0 | 0.0 | 0.0 | 0.00 | 0.00 | 0.00 | 72 | 1018.3 |
| 20260904193119 | 57 | 0 | 0.0 | 0.0 | 0.00 | 0.00 | 0.00 | 72 | 1018.5 |
| 20260904191623 | 57 | 0 | 0.0 | 0.0 | 0.00 | 0.00 | 0.00 | 72 | 1018.7 |
| 20260904190104 | 57 | 0 | 0.0 | 0.0 | 0.00 | 0.00 | 0.00 | 72 | 1018.7 |
| 20260904184610 | 57 | 0 | 0.0 | 0.0 | 0.00 | 0.00 | 0.00 | 71 | 1018.9 |
| 20260904183101 | 57 | 0 | 0.0 | 1.0 | 0.00 | 0.00 | 0.00 | 69 | 1019.2 |
| 20260904181601 | 58 | 43 | 0.0 | 2.0 | 0.00 | 0.00 | 0.00 | 67 | 1019.3 |
| 20260904180103 | 58 | 0 | 0.0 | 3.0 | 0.00 | 0.00 | 0.00 | 65 | 1019.6 |
| 20260904174606 | 57 | 340 | 0.0 | 1.0 | 0.00 | 0.00 | 0.00 | 68 | 1019.7 |
| 20260904173109 | 58 | 0 | 0.0 | 0.0 | 0.00 | 0.00 | 0.00 | 68 | 1019.9 |
| 20260904171601 | 58 | 319 | 0.0 | 4.0 | 0.00 | 0.00 | 0.00 | 66 | 1019.9 |
| 20260904170059 | 58 | 0 | 0.0 | 3.0 | 0.00 | 0.00 | 0.00 | 66 | 1020.1 |
| 20260904164603 | 57 | 0 | 0.0 | 1.0 | 0.00 | 0.02 | 0.00 | 68 | 1020.2 |
| 20260904163058 | 58 | 0 | 0.0 | 2.0 | 0.00 | 0.02 | 0.00 | 67 | 1020.3 |
| 20260904161601 | 58 | 0 | 0.0 | 2.0 | 0.00 | 0.02 | 0.00 | 66 | 1020.4 |
| 20260904160103 | 58 | 0 | 0.0 | 2.0 | 0.00 | 0.02 | 0.00 | 66 | 1020.4 |
| 20260904154620 | 58 | 257 | 0.0 | 4.0 | 0.00 | 0.03 | 0.02 | 66 | 1020.6 |
| 20260904153103 | 58 | 0 | 0.0 | 2.0 | 0.00 | 0.03 | 0.02 | 66 | 1020.6 |
| 20260904151611 | 58 | 0 | 1.0 | 4.0 | 0.00 | 0.03 | 0.02 | 65 | 1020.7 |
| 20260904150106 | 58 | 0 | 0.0 | 1.0 | 0.00 | 0.03 | 0.02 | 67 | 1021.0 |
| 20260904144604 | 59 | 0 | 0.0 | 4.0 | 0.00 | 0.03 | 0.02 | 66 | 1021.1 |
| 20260904143101 | 59 | 262 | 1.0 | 3.0 | 0.00 | 0.03 | 0.02 | 67 | 1021.3 |
| 20260904141623 | 59 | 253 | 0.0 | 2.0 | 0.00 | 0.03 | 0.02 | 67 | 1021.3 |
| 20260904140109 | 58 | 0 | 0.0 | 2.0 | 0.00 | 0.03 | 0.02 | 68 | 1021.3 |
| 20260904134611 | 59 | 258 | 0.0 | 3.0 | 0.00 | 0.03 | 0.02 | 67 | 1021.3 |
| 20260904133116 | 59 | 0 | 0.0 | 2.0 | 0.00 | 0.03 | 0.02 | 66 | 1021.3 |
| 20260904131615 | 59 | 255 | 0.0 | 5.0 | 0.00 | 0.03 | 0.02 | 64 | 1021.3 |
| 20260904130104 | 59 | 0 | 0.0 | 3.0 | 0.00 | 0.03 | 0.02 | 65 | 1021.4 |
| 20260904124600 | 59 | 265 | 0.0 | 4.0 | 0.00 | 0.03 | 0.02 | 64 | 1021.4 |
| 20260904123123 | 59 | 263 | 1.0 | 7.0 | 0.00 | 0.03 | 0.02 | 66 | 1021.6 |
| 20260904121558 | 59 | 254 | 0.0 | 4.0 | 0.00 | 0.03 | 0.02 | 67 | 1021.4 |
| 20260904114602 | 59 | 260 | 0.0 | 2.0 | 0.00 | 0.03 | 0.02 | 68 | 1021.4 |
| 20260904113108 | 59 | 0 | 0.0 | 2.0 | 0.00 | 0.03 | 0.02 | 69 | 1021.2 |
| 20260904111558 | 59 | 0 | 0.0 | 0.0 | 0.00 | 0.03 | 0.02 | 72 | 1021.0 |
| 20260904110100 | 59 | 329 | 0.0 | 1.0 | 0.00 | 0.03 | 0.02 | 72 | 1020.9 |
| 20260904104601 | 59 | 254 | 0.0 | 1.0 | 0.00 | 0.03 | 0.02 | 72 | 1020.8 |
| 20260904103106 | 59 | 0 | 0.0 | 1.0 | 0.00 | 0.03 | 0.02 | 72 | 1020.7 |
| 20260904101603 | 59 | 0 | 0.0 | 4.0 | 0.00 | 0.03 | 0.02 | 71 | 1020.6 |
| 20260904100108 | 59 | 0 | 0.0 | 4.0 | 0.00 | 0.03 | 0.02 | 69 | 1020.5 |
| 20260904094602 | 60 | 259 | 0.0 | 4.0 | 0.00 | 0.03 | 0.02 | 68 | 1020.4 |
| 20260904093107 | 60 | 261 | 1.0 | 4.0 | 0.00 | 0.03 | 0.02 | 69 | 1020.3 |
| 20260904091601 | 61 | 245 | 1.0 | 4.0 | 0.00 | 0.03 | 0.02 | 68 | 1020.0 |
| 20260904090104 | 61 | 222 | 1.0 | 5.0 | 0.00 | 0.03 | 0.02 | 68 | 1019.8 |
| 20260904084603 | 62 | 275 | 1.0 | 4.0 | 0.00 | 0.03 | 0.02 | 64 | 1019.7 |
| 20260904083104 | 62 | 256 | 1.0 | 4.0 | 0.00 | 0.03 | 0.02 | 63 | 1019.5 |
| 20260904081602 | 62 | 207 | 1.0 | 5.0 | 0.00 | 0.03 | 0.02 | 63 | 1019.5 |
| 20260904080107 | 62 | 240 | 2.0 | 8.0 | 0.00 | 0.03 | 0.02 | 59 | 1019.3 |
| 20260904074604 | 63 | 82 | 2.0 | 7.0 | 0.00 | 0.03 | 0.02 | 58 | 1019.3 |
| 20260904073104 | 63 | 254 | 2.0 | 7.0 | 0.00 | 0.03 | 0.02 | 59 | 1019.0 |